Retour au catalogue

STARLINK-34397

ActifCommunicationsVLEO
NORAD 64356·PAYLOAD·🇺🇸 United States

Lancé Jun 13, 2025 depuis Vandenberg Space Force Base

Loading…

Prochains Passages (prochaines 24 heures)

TLE

FraisSource: CelesTrak SupGP

Époque: Sep 15, 2026, 03:45 UTC

1 64356C 25126N   26258.15673611 -.00034001  00000+0 -11826-2 0  2580
2 64356  69.9998 275.1499 0003848 267.9230  37.8780 15.29600155    13

Suivez STARLINK-34397 en temps réel avec AllMySat

Download on the App Store